Location: Del Oro Observatory
(38.3044°N, 104.8119°W)
Time: 04:02:58
(UTC-07:00)

Iridium 35 - Visible Passes

Search period start: 06 March 2015 00:00
Search period end: 16 March 2015 01:00
Orbit: 776 x 779 km, 86.4° (Epoch: 05 March)

Date Brightness Start Highest point End Pass type
(mag) Time Alt. Az. Time Alt. Az. Time Alt. Az.
07 Mar 7.6 21:03:54 10° N 21:04:10 11° N 21:04:10 11° N visible
08 Mar 7.3 21:30:34 10° N 21:31:06 13° NNE 21:31:06 13° NNE visible
09 Mar 7.2 20:57:38 10° NNE 20:58:04 12° NNE 20:58:04 12° NNE visible
09 Mar 7.7 22:37:55 10° NNW 22:38:34 13° NNW 22:38:34 13° NNW visible
10 Mar 7.1 22:04:02 10° N 22:05:34 20° NNW 22:05:34 20° NNW visible
11 Mar 6.6 21:30:29 10° N 21:32:35 24° N 21:32:35 24° N visible
12 Mar 6.4 20:57:17 10° NNE 20:59:40 23° NE 20:59:40 23° NE visible
12 Mar 7.5 22:38:26 10° NNW 22:40:10 17° NW 22:40:10 17° NW visible
13 Mar 6.6 20:24:36 10° NNE 20:26:46 17° NE 20:26:46 17° NE visible
13 Mar 6.6 22:04:17 10° NNW 22:07:17 31° NW 22:07:17 31° NW visible
14 Mar 5.6 21:30:32 10° N 21:34:27 52° N 21:34:27 52° N visible
15 Mar 5.2 20:57:06 10° N 21:01:40 49° ENE 21:01:40 49° ENE visible
15 Mar 7.5 22:39:15 10° NW 22:42:11 16° WNW 22:42:11 16° WNW visible
